Back to catalog

STARLINK-34761

AliveCommunicationsSSO
NORAD 64954·PAYLOAD·🇺🇸 United States

Launched Jul 26, 2025 from Vandenberg Space Force Base

Loading…

Next Passes (next 24 hours)

TLE

FreshSource: CelesTrak SupGP

Epoch: Sep 14, 2026, 15:13 UTC

1 64954C 25158Y   26257.63451389 -.00073838  00000+0 -22908-2 0  2570
2 64954  97.2843 115.9878 0002034  78.4368 329.1506 15.33494194    17

Track STARLINK-34761 in real time with AllMySat

Download on the App Store